GFSCGP_925_temp_000.txt.gz
Temp
15 14 15 17 15 18 17 15 14 15 17 17 18 18 18 18 16 19 20 19 18 19 19 20 20 21 21 18 16 15 13 12 10 9 8 7 9 10 11 12 12 12 12 11
13 13 16 17 16 15 14 15 16 17 17 15 15 17 18 18 19 19 19 20 20 19 19 19 18 18 19 20 17 14 13 12 11 9 8 9 8 8 11 12 11 11 11 11
16 18 15 15 15 16 14 14 16 15 15 14 13 17 15 16 16 17 17 18 16 16 18 19 15 16 17 15 15 15 14 12 10 9 8 8 8 8 7 8 10 10 10 11
14 15 16 14 14 14 16 15 15 15 14 15 15 17 17 18 18 18 18 16 15 15 14 14 13 12 15 18 16 14 12 10 10 9 8 8 8 7 8 7 9 10 10 10
16 16 15 14 15 14 16 17 15 14 13 13 14 13 19 16 18 18 17 17 16 15 15 14 13 14 17 16 15 14 12 11 9 9 9 8 8 8 9 8 8 8 8 8
13 14 15 15 14 14 15 16 13 10 12 12 14 14 21 17 19 21 20 21 17 16 14 13 13 14 14 12 11 11 11 10 9 8 8 8 7 8 8 7 7 6 7 7
15 14 14 15 16 14 15 14 12 11 9 13 13 13 20 20 20 18 18 17 17 14 12 12 11 9 11 9 8 8 8 8 9 8 8 8 8 9 9 9 6 5 5 6
14 17 15 13 15 15 12 14 12 13 12 17 9 14 19 21 18 16 15 15 14 13 12 12 11 8 9 9 8 8 8 8 8 8 8 8 8 8 8 8 7 7 7 7
13 14 14 13 15 16 14 13 15 13 14 11 17 16 18 19 17 18 17 14 13 13 13 13 11 10 10 9 8 9 9 9 9 8 8 8 8 8 8 8 8 9 8 7
16 15 15 15 14 14 14 14 14 11 13 13 15 16 17 19 21 18 15 13 13 12 12 12 11 10 10 9 9 8 7 8 8 8 8 8 7 8 8 8 8 8 9 8
14 13 14 14 12 14 13 13 12 13 13 15 14 17 18 20 20 14 12 13 12 8 7 7 7 7 7 7 8 8 8 7 7 7 6 6 6 6 7 7 8 8 7 7
13 13 12 14 12 13 13 15 14 14 14 13 14 14 17 16 16 10 5 5 5 5 5 5 5 6 6 6 6 6 6 7 8 8 7 7 7 6 6 6 6 7 7 7
12 11 11 11 12 9 11 12 12 12 9 11 11 12 16 12 4 5 5 5 5 5 5 5 5 5 5 5 5 5 5 5 5 6 7 7 7 6 6 6 6 5 5 6
11 10 11 11 12 12 12 11 11 10 11 11 11 12 13 4 3 2 4 4 5 5 5 5 5 5 5 5 5 4 4 4 3 3 4 5 5 6 5 6 5 5 4 4
9 10 11 11 11 9 9 8 9 8 10 9 10 10 6 1 1 1 3 4 4 4 5 4 4 4 4 4 3 3 3 2 2 2 2 3 3 4 5 4 5 4 3 3
8 7 7 7 8 8 8 8 8 9 9 9 9 8 1 2 3 3 3 2 3 3 4 4 4 4 3 3 3 2 2 1 0 1 1 1 2 3 3 4 4 4 3 2
6 6 6 6 7 6 6 7 8 9 10 5 6 1 0 1 3 4 4 2 3 1 1 3 2 2 2 2 2 1 1 0 -0 -0 0 0 0 1 2 2 3 2 1 0
5 5 3 5 2 4 6 4 4 3 2 2 1 -1 -0 1 2 3 2 2 2 2 2 2 2 1 0 0 0 -0 -0 -0 -0 -1 -1 -1 -1 -1 1 1 1 1 -0 -1
5 5 1 2 -1 4 6 3 3 4 2 1 2 2 1 1 0 3 3 2 1 0 1 0 -1 -1 -1 -2 -1 -1 -2 -2 -1 -1 -1 -2 -2 -2 -1 -0 -1 -1 -2 -2
4 4 4 -1 1 -1 3 3 3 2 0 -1 -1 -0 -0 -0 -1 1 2 1 0 1 -1 -1 -2 -2 -3 -3 -3 -4 -4 -3 -2 -2 -3 -3 -3 -2 -2 -1 -2 -2 -3 -3
-6 -8 -1 -4 -4 -3 -1 0 2 -2 -1 -3 -2 -1 -1 -2 -1 1 0 -1 -1 -1 -2 -3 -3 -3 -3 -3 -4 -5 -5 -5 -5 -6 -6 -4 -3 -3 -2 -3 -3 -3 -4 -5
0 -5 -8 -10 -8 -3 -0 1 1 -0 -1 -1 0 1 0 0 -0 -1 -2 -2 -2 -3 -3 -4 -4 -4 -4 -5 -6 -6 -6 -6 -7 -7 -7 -6 -6 -4 -4 -4 -5 -5 -6 -7
-1 -0 -4 -3 -3 1 1 1 3 0 -1 -0 0 1 -0 -1 -1 -2 -3 -3 -3 -4 -4 -5 -6 -7 -6 -7 -8 -8 -8 -9 -9 -9 -9 -8 -7 -5 -6 -6 -7 -8 -8 -8
-0 1 1 1 2 2 2 3 1 2 1 1 -0 -1 -2 -2 -3 -4 -4 -4 -5 -5 -6 -7 -7 -8 -8 -8 -9 -10 -10 -11 -12 -12 -11 -11 -10 -8 -6 -7 -7 -8 -8 -8
1 -1 -2 0 2 2 2 2 2 2 1 -1 -2 -3 -4 -5 -5 -5 -6 -6 -7 -7 -8 -8 -9 -10 -10 -10 -11 -12 -13 -14 -14 -14 -14 -13 -12 -10 -7 -7 -7 -8 -8 -7
1 1 1 0 3 2 3 3 -0 -1 -2 -5 -6 -6 -6 -6 -7 -7 -8 -8 -8 -9 -10 -10 -11 -12 -13 -14 -14 -15 -16 -16 -16 -16 -16 -15 -13 -12 -10 -7 -8 -8 -8 -8

GFSCGP_925_temp_003.txt.gz
Temp
14 14 15 16 14 16 17 15 14 14 16 16 18 17 17 18 16 18 19 20 19 18 19 18 19 20 20 19 18 16 15 13 10 9 8 8 8 9 10 12 13 13 13 13
13 14 16 16 14 14 14 14 15 15 16 13 15 17 18 18 19 19 19 19 17 16 18 18 17 18 18 18 18 16 14 12 11 10 9 9 8 7 8 9 11 12 12 12
15 17 14 15 15 15 13 14 16 15 13 13 12 15 15 18 15 16 16 16 15 15 15 15 15 15 16 17 16 15 14 12 10 9 8 8 9 8 6 7 8 11 11 12
13 14 15 14 15 14 14 14 14 14 14 15 15 16 15 19 18 18 17 16 15 15 15 13 12 14 14 14 14 13 13 12 10 9 7 8 8 7 6 6 7 9 11 11
16 14 14 14 15 14 15 16 15 14 13 13 13 13 15 16 17 18 18 19 17 15 14 15 13 13 11 11 12 13 11 11 10 9 8 7 8 8 9 8 7 7 8 9
13 13 14 16 14 14 14 14 11 10 12 12 14 14 17 17 20 19 18 19 15 14 13 14 13 11 10 10 10 9 9 9 9 9 8 8 8 7 7 7 7 7 7 8
14 13 14 15 16 13 15 14 13 12 10 13 12 13 17 19 19 17 18 15 13 12 12 12 10 9 8 7 7 8 8 8 7 7 7 7 7 7 8 7 6 5 4 5
14 17 14 13 15 15 12 14 13 13 13 16 8 14 19 17 17 16 12 12 10 10 9 8 7 7 6 6 5 6 7 7 7 7 7 7 7 7 7 7 8 7 7 7
13 13 14 12 14 15 13 13 14 13 11 12 16 15 18 18 15 11 8 5 5 5 5 5 5 5 5 5 5 4 4 5 6 6 6 7 6 6 7 7 7 7 7 6
14 13 14 14 14 13 14 14 13 10 11 13 15 16 17 17 9 5 5 4 5 5 5 5 5 5 5 5 4 4 4 4 3 3 4 5 6 6 6 6 7 7 8 7
14 13 13 14 12 14 12 12 13 13 11 14 14 15 15 5 4 4 4 4 4 5 5 5 5 5 4 4 4 4 3 3 3 3 3 3 3 5 6 5 6 7 7 7
13 12 10 11 13 12 13 13 13 11 12 11 14 13 4 2 3 4 3 4 5 5 5 5 5 4 4 4 3 3 3 3 2 2 3 3 3 3 3 5 5 6 6 6
12 10 10 11 12 10 11 11 12 11 9 11 11 12 4 2 3 3 4 4 4 4 5 4 4 4 4 3 3 2 2 2 1 1 2 3 3 2 2 2 3 4 4 5
11 9 11 11 12 11 11 11 10 10 11 11 12 11 11 3 2 3 3 3 3 3 3 4 3 3 3 3 3 2 2 2 1 1 0 0 1 2 3 3 3 3 3 3
10 9 9 9 10 9 7 7 7 7 8 8 9 8 10 -0 1 2 3 3 3 3 3 2 3 2 2 2 2 2 1 1 0 0 -0 -0 -0 -0 1 3 3 2 2 2
7 8 5 5 7 7 7 7 8 8 8 7 8 8 1 1 2 2 3 3 2 2 2 2 2 2 1 1 1 0 0 -0 -1 -1 -0 -1 -1 -1 -1 0 2 3 2 2
5 6 5 7 6 5 5 5 7 8 8 7 6 2 -1 -0 1 2 2 2 2 2 1 1 1 1 0 -1 -1 -1 -1 -1 -1 -1 -1 -1 -1 -2 -2 -2 -1 2 1 1
5 4 4 5 1 4 6 2 5 4 2 -0 -1 -2 -1 1 2 2 2 2 2 1 1 0 0 -0 -1 -1 -1 -2 -2 -2 -3 -2 -2 -2 -3 -3 -2 -2 -2 -1 -0 -1
4 4 -0 2 0 4 5 4 3 3 2 0 -0 0 1 1 0 -0 1 2 1 -0 -0 -0 -1 -1 -2 -2 -2 -3 -3 -3 -4 -3 -3 -4 -5 -5 -4 -4 -3 -2 -2 -2
3 3 3 -5 -1 -3 2 3 3 2 -1 -2 -3 -2 -2 -1 -2 1 1 1 -0 -1 -1 -1 -2 -3 -4 -4 -4 -4 -4 -5 -5 -5 -5 -6 -6 -6 -5 -4 -4 -4 -4 -3
-7 -6 2 2 2 -2 -1 -1 1 -2 -0 -3 -3 -1 -1 -1 0 1 0 -1 -1 -2 -2 -2 -3 -4 -4 -5 -5 -6 -6 -6 -6 -7 -8 -9 -9 -8 -7 -7 -5 -5 -5 -4
0 -5 -9 -11 -7 -2 -1 0 0 -0 -1 -1 -1 0 0 1 1 0 -0 -1 -2 -3 -3 -3 -4 -5 -5 -5 -7 -7 -7 -8 -9 -10 -11 -11 -11 -11 -9 -9 -7 -6 -6 -6
-2 -0 -3 -3 -3 1 0 1 2 2 0 1 0 1 -0 -0 -0 -0 -2 -3 -4 -3 -4 -5 -6 -7 -7 -8 -9 -9 -9 -10 -12 -13 -13 -13 -13 -13 -12 -11 -9 -7 -6 -7
-1 -0 0 1 2 2 3 3 2 1 0 1 0 -1 -1 -1 -2 -3 -4 -4 -4 -5 -6 -7 -8 -9 -10 -10 -11 -12 -13 -14 -15 -16 -16 -16 -16 -15 -14 -13 -11 -9 -7 -7
1 -1 -1 -0 2 2 2 2 2 2 1 -0 -2 -2 -3 -4 -5 -5 -6 -6 -7 -8 -9 -10 -11 -12 -12 -13 -14 -15 -16 -17 -18 -18 -18 -18 -18 -17 -16 -15 -13 -10 -8 -7
2 1 0 0 2 2 2 3 -0 0 -1 -5 -5 -6 -6 -6 -7 -7 -8 -9 -10 -11 -12 -13 -14 -15 -16 -17 -18 -18 -19 -19 -20 -20 -19 -19 -19 -18 -17 -16 -15 -13 -10 -7

GFSCGP_925_temp_006.txt.gz
Temp
18 20 22 24 23 24 21 21 21 22 23 21 21 21 22 23 23 23 23 24 24 24 23 22 20 19 18 18 16 16 15 14 13 12 12 12 12 11 11 11 10 10 10 11
18 20 22 20 19 19 20 19 20 22 21 18 21 20 22 22 22 23 23 23 23 22 22 21 18 17 15 15 14 14 14 13 12 12 12 12 11 11 11 10 9 9 9 10
21 23 19 18 20 19 20 19 21 21 20 20 19 22 21 24 21 22 22 21 21 20 19 18 16 13 12 11 11 11 12 12 11 11 11 10 9 9 9 9 8 7 8 8
18 17 17 17 18 20 19 21 19 18 18 21 19 21 23 24 24 22 22 22 20 18 17 15 13 11 10 9 8 9 9 10 9 10 10 9 10 10 9 9 8 7 7 7
21 16 16 16 19 18 20 17 17 16 18 17 20 18 24 21 22 23 21 18 17 15 13 12 10 9 8 7 7 7 8 8 8 8 9 9 10 11 10 8 8 7 6 6
18 14 17 20 16 16 15 17 16 15 17 19 21 20 23 23 22 21 17 13 12 11 11 10 9 8 8 7 6 6 7 7 7 7 8 8 9 9 9 8 8 8 6 5
19 17 16 16 18 15 16 18 19 19 19 20 18 17 21 23 17 16 13 11 10 10 10 9 9 8 7 6 6 6 6 6 6 6 6 7 7 7 8 8 8 8 6 5
19 19 17 16 19 20 17 18 19 17 19 20 13 18 22 19 13 11 10 10 9 9 9 9 8 8 7 6 6 6 6 5 5 5 5 5 5 6 7 7 7 7 7 6
19 19 15 14 15 18 16 16 18 16 14 16 19 21 22 18 11 10 9 9 8 8 8 8 7 7 6 6 6 5 5 5 4 4 4 4 4 4 5 5 5 6 5 5
16 15 16 16 14 15 16 17 16 16 15 15 18 19 20 18 12 9 8 8 8 8 7 7 7 6 6 5 5 5 5 4 4 4 3 4 4 4 3 4 4 4 5 5
16 15 16 14 16 17 17 15 15 15 15 14 14 17 16 12 8 8 7 7 7 7 7 7 7 6 5 5 4 5 4 4 3 3 3 3 3 3 3 3 3 3 3 3
16 12 12 15 17 15 16 16 16 14 14 16 15 15 9 8 7 6 6 6 6 6 7 7 6 6 5 5 4 4 3 3 2 2 2 2 2 1 2 2 2 3 3 3
13 11 12 13 14 11 13 14 14 15 11 12 12 13 8 7 7 6 6 6 5 5 6 6 6 5 5 4 4 4 3 3 2 2 1 1 1 1 1 1 1 1 2 2
10 10 12 12 14 15 13 13 13 13 11 12 13 14 15 9 8 7 7 6 5 5 5 5 5 5 5 4 4 3 3 2 1 1 1 1 0 -0 -0 1 1 1 1 1
10 10 11 10 10 10 10 10 11 11 10 9 11 11 12 12 8 6 6 6 5 5 5 5 4 4 4 3 3 3 2 2 0 0 0 0 0 -0 -1 -1 -0 1 2 1
9 8 10 9 11 10 9 10 10 10 9 9 10 10 12 5 5 5 6 5 5 5 5 5 4 4 3 3 2 1 1 1 -0 -1 -1 -1 -2 -2 -2 -1 -1 -1 -0 0
7 7 8 8 9 8 6 7 9 10 11 11 10 9 4 5 5 6 5 5 5 5 5 4 4 3 3 1 0 0 -0 -1 -2 -2 -2 -2 -2 -3 -3 -4 -3 -2 -2 -2
6 6 6 6 6 6 10 8 8 8 8 5 3 2 3 4 5 5 5 4 5 5 4 4 3 3 2 1 -0 -1 -2 -3 -3 -3 -3 -3 -3 -4 -5 -5 -4 -3 -3 -3
6 6 6 5 6 7 8 9 7 7 8 4 4 4 5 4 3 4 5 5 4 5 4 3 2 1 -0 -1 -2 -3 -3 -4 -3 -4 -4 -4 -5 -6 -6 -7 -6 -5 -5 -4
5 5 5 1 3 4 8 5 5 5 4 2 2 3 3 3 3 5 6 5 5 4 3 1 0 -1 -1 -1 -2 -4 -4 -5 -5 -5 -5 -6 -6 -8 -8 -8 -8 -7 -7 -5
2 1 3 4 4 5 4 2 4 3 4 2 2 3 3 3 4 5 5 4 4 2 1 -1 -1 -2 -2 -3 -4 -5 -6 -6 -6 -7 -8 -8 -9 -10 -10 -11 -10 -10 -9 -8
4 3 1 -2 0 2 3 2 3 5 4 4 4 4 3 4 4 4 4 4 3 1 -1 -1 -2 -3 -4 -5 -7 -8 -8 -8 -9 -10 -11 -11 -12 -13 -13 -13 -13 -12 -11 -10
2 4 3 2 4 4 3 4 4 4 3 4 4 4 4 3 3 4 3 1 -1 -2 -2 -4 -6 -7 -7 -9 -10 -10 -10 -11 -13 -14 -14 -15 -15 -16 -16 -15 -15 -14 -13 -11
3 4 2 3 4 4 5 5 5 5 4 5 4 3 3 2 2 1 -1 -2 -3 -4 -6 -7 -9 -10 -11 -11 -12 -13 -14 -15 -16 -17 -17 -17 -18 -18 -17 -17 -16 -16 -14 -13
3 2 2 2 3 4 4 4 5 5 4 4 2 0 -0 -2 -2 -3 -4 -5 -6 -8 -9 -10 -12 -13 -13 -14 -15 -16 -17 -18 -18 -18 -19 -19 -19 -19 -18 -18 -18 -17 -16 -15
3 3 2 2 4 4 4 5 5 3 3 -1 -2 -3 -5 -5 -6 -6 -7 -8 -10 -11 -12 -13 -14 -15 -16 -17 -17 -18 -18 -19 -19 -19 -19 -19 -19 -19 -19 -18 -18 -18 -17 -15

GFSCGP_925_temp_009.txt.gz
Temp
21 21 22 25 25 25 24 24 23 24 26 24 23 23 24 25 26 27 27 26 25 23 21 17 15 14 13 13 13 15 16 17 16 15 15 15 15 15 14 14 14 13 12 11
20 20 24 25 21 22 23 22 23 24 25 22 22 22 23 25 26 26 24 24 22 21 19 16 14 12 11 11 11 12 13 14 15 15 14 14 14 14 14 13 12 12 12 11
22 24 23 22 22 22 22 22 22 22 23 22 22 22 25 26 26 24 23 22 20 17 15 14 13 11 10 9 10 10 11 11 12 12 13 12 12 11 11 12 12 11 10 10
21 21 20 20 20 22 21 23 22 21 20 21 21 21 24 26 26 23 20 18 16 15 14 13 11 10 9 8 9 9 9 9 10 11 12 11 11 11 11 11 11 10 9 9
22 19 18 19 20 21 22 19 20 19 19 19 21 20 24 25 24 22 18 16 15 14 13 12 11 10 9 8 8 8 8 8 8 9 9 10 10 11 11 10 10 10 9 8
20 18 19 21 20 19 18 19 20 19 19 19 22 23 23 25 24 19 16 14 13 13 12 12 10 10 9 8 8 7 8 7 7 7 7 8 8 9 9 10 9 10 9 8
21 20 19 18 19 18 18 19 19 20 20 19 23 20 23 24 19 19 16 13 13 12 12 11 10 10 8 8 8 7 7 6 6 6 6 6 6 7 8 8 9 9 9 8
20 20 20 18 19 20 20 20 19 18 19 21 16 19 22 17 15 14 13 12 11 11 11 10 10 9 8 8 7 7 6 6 6 6 5 5 5 5 6 6 6 7 7 7
19 20 18 17 18 19 19 18 17 15 15 16 19 21 23 15 14 13 12 12 10 10 10 10 9 8 7 7 7 7 6 5 5 5 5 4 4 4 4 4 4 4 5 5
18 16 19 17 16 17 18 18 14 13 13 14 19 20 21 22 17 13 11 11 10 10 10 9 9 8 7 6 6 6 5 5 4 4 3 3 3 3 3 3 3 3 3 3
16 15 17 18 17 17 17 16 16 17 16 15 15 18 20 17 15 13 11 9 9 9 9 9 8 7 7 6 5 5 5 4 3 3 3 2 2 2 2 2 2 2 2 2
16 13 12 16 18 18 16 16 17 15 13 16 15 14 20 13 12 10 9 8 8 7 8 8 8 7 7 6 5 5 4 4 3 3 2 2 2 1 1 1 2 2 1 2
14 11 11 13 16 13 14 16 15 16 14 13 13 14 15 11 9 9 9 8 7 7 7 7 8 7 7 6 6 5 4 4 3 2 2 2 1 1 1 1 1 1 1 2
12 13 12 12 14 15 13 13 13 11 11 12 13 15 16 14 12 12 10 9 8 7 6 6 6 6 6 5 5 5 4 4 3 2 1 1 1 0 0 -0 1 1 1 0
12 10 11 12 12 13 12 11 12 12 12 11 12 12 13 13 13 12 11 9 8 7 7 6 6 5 5 5 4 4 3 3 2 1 1 0 -0 -1 -1 -2 -2 -2 -1 0
12 9 10 8 10 10 10 11 11 11 12 12 12 12 14 13 8 8 8 7 7 7 7 6 6 5 5 4 4 3 2 2 1 -0 -0 -0 -1 -1 -2 -2 -3 -3 -3 -2
9 8 7 7 9 9 8 9 10 11 12 12 10 9 5 8 7 7 7 7 7 7 6 6 5 5 4 4 3 2 1 1 -1 -2 -2 -2 -2 -3 -3 -3 -3 -3 -4 -4
7 7 7 6 7 5 10 12 10 9 9 8 7 4 5 6 7 6 7 6 6 6 6 6 5 4 4 2 1 0 -1 -2 -2 -3 -3 -3 -3 -4 -4 -4 -5 -5 -5 -5
8 7 5 5 6 8 9 10 10 8 8 9 6 5 6 6 6 6 8 7 7 6 6 6 4 2 1 1 0 -1 -3 -3 -4 -4 -4 -4 -4 -5 -5 -6 -7 -7 -7 -7
7 7 6 6 4 5 8 8 6 6 5 4 4 4 4 5 4 6 7 6 6 6 5 5 2 1 0 -0 -1 -4 -4 -5 -5 -5 -6 -6 -7 -7 -8 -8 -8 -9 -9 -9
4 4 4 4 4 6 7 4 5 4 6 3 4 4 4 4 5 6 6 5 5 5 3 1 0 -0 -1 -2 -5 -6 -6 -7 -7 -8 -9 -10 -10 -11 -11 -12 -12 -12 -12 -12
6 5 4 3 2 3 5 4 4 6 5 4 5 5 5 5 5 5 5 5 5 2 1 -0 -2 -2 -4 -5 -8 -8 -9 -9 -10 -12 -13 -14 -14 -15 -15 -15 -15 -15 -15 -15
3 5 4 5 5 6 5 5 6 6 4 5 5 5 5 4 4 4 4 4 1 0 -2 -4 -6 -7 -7 -9 -10 -11 -11 -12 -14 -15 -16 -16 -17 -17 -17 -17 -17 -17 -17 -16
5 6 4 4 5 5 6 6 6 6 6 6 5 5 4 4 3 3 2 0 -2 -4 -6 -7 -9 -10 -11 -11 -12 -13 -14 -15 -16 -17 -17 -18 -18 -18 -18 -18 -18 -18 -17 -17
5 5 4 3 4 5 5 5 5 5 5 5 5 4 3 2 1 0 -2 -4 -5 -7 -8 -10 -11 -12 -12 -13 -14 -15 -16 -17 -18 -18 -18 -18 -18 -18 -18 -18 -18 -18 -18 -17
5 4 4 3 5 5 5 6 6 5 4 3 2 0 -3 -4 -4 -5 -6 -7 -8 -9 -11 -12 -13 -14 -15 -15 -16 -17 -17 -18 -19 -19 -19 -19 -19 -19 -19 -19 -18 -18 -17 -16

GFSCGP_925_temp_015.txt.gz
Temp
17 15 15 16 16 18 20 19 19 19 20 21 19 18 18 19 19 17 13 12 11 10 9 8 7 7 7 8 8 9 11 12 13 13 14 14 13 14 15 15 15 14 14 14
16 15 17 17 18 18 18 18 17 18 20 21 19 18 18 19 19 16 13 11 10 9 9 8 7 7 7 7 7 8 9 10 11 11 11 11 12 12 12 12 12 12 13 13
15 18 18 18 18 18 18 18 18 18 18 19 18 16 18 18 14 13 12 11 10 9 8 7 7 7 7 7 7 7 7 8 9 10 11 11 12 11 12 11 11 12 11 11
16 18 18 17 17 17 18 18 18 18 18 16 18 15 18 18 14 12 11 9 8 8 7 7 6 6 7 6 7 7 7 7 8 9 9 8 7 7 8 9 9 10 10 10
17 17 17 17 17 17 17 18 18 18 17 15 16 14 15 15 13 11 10 9 8 7 7 6 6 7 7 6 6 6 6 6 7 7 7 6 6 6 7 7 8 8 8 9
16 17 18 17 18 19 16 17 17 15 14 12 14 15 15 15 14 11 10 9 8 7 6 6 7 7 6 6 5 5 5 5 5 6 6 5 5 5 5 5 5 5 6 6
17 16 17 18 18 16 17 16 14 13 11 13 15 14 16 14 13 12 9 7 7 6 6 5 5 6 6 5 5 4 4 4 4 5 4 4 4 4 4 3 3 3 4 4
16 16 16 16 17 16 15 16 14 15 12 13 14 14 16 10 10 9 8 7 7 7 6 5 5 5 5 5 5 4 4 4 4 4 4 4 4 3 3 3 3 3 3 3
15 16 16 16 17 17 16 15 15 13 7 10 14 15 12 11 9 9 8 7 7 6 6 5 5 6 5 5 4 4 3 3 3 3 3 3 3 3 3 3 3 3 3 3
16 15 16 15 16 16 16 15 13 11 10 9 12 13 13 11 10 9 7 6 6 6 5 5 5 5 5 5 4 4 3 3 3 3 3 2 2 2 2 2 2 2 2 2
15 14 14 15 14 14 14 13 14 13 11 10 9 12 14 13 10 9 7 6 6 5 5 5 5 5 5 5 4 4 4 3 3 2 2 2 2 2 2 1 1 1 1 1
14 12 9 12 14 13 14 13 13 13 11 10 13 13 10 8 8 7 7 7 5 5 5 4 5 5 5 5 4 4 3 3 2 2 2 1 1 1 1 1 1 1 1 1
13 10 8 10 12 12 12 13 12 12 10 11 11 12 8 7 8 8 7 6 7 6 5 5 4 4 5 4 4 4 3 3 2 2 2 1 1 -0 -1 -1 -1 -1 -1 -0
13 11 9 11 10 10 10 10 10 11 10 8 9 10 11 11 8 7 7 7 5 5 5 3 3 4 4 4 4 4 4 3 3 2 2 1 1 -0 -1 -1 -1 -1 -2 -2
11 7 9 9 9 9 9 8 9 8 9 8 10 9 10 10 7 8 7 6 5 4 3 3 2 3 4 4 4 4 4 4 3 3 2 1 1 0 -1 -1 -2 -2 -3 -3
9 6 6 4 8 8 7 7 7 7 7 7 8 8 10 7 7 7 7 6 5 5 4 3 2 3 4 4 4 3 3 2 2 1 1 0 -1 -2 -3 -3 -4 -5 -5 -6
7 4 1 4 6 5 2 6 7 8 8 7 7 7 1 4 5 4 5 5 5 5 5 3 2 3 4 4 3 2 2 1 0 -0 -1 -2 -3 -4 -5 -6 -6 -7 -8 -8
5 2 -1 -1 -2 -0 6 7 7 6 6 4 2 -1 -0 3 4 4 4 4 3 3 3 3 4 3 2 2 1 0 -0 -1 -1 -3 -4 -5 -6 -6 -7 -8 -9 -10 -10 -10
5 4 -1 -1 -5 2 6 6 7 7 4 2 2 1 2 3 3 3 4 4 4 4 4 3 3 2 1 -0 -1 -2 -3 -3 -5 -6 -7 -8 -8 -9 -11 -12 -12 -13 -13 -13
4 5 3 -4 1 -1 3 5 5 4 2 -1 -3 -1 -1 2 -1 -1 3 3 3 4 4 2 1 -0 -1 -3 -4 -4 -6 -7 -8 -9 -9 -11 -12 -13 -14 -14 -15 -15 -16 -16
-4 -5 3 3 3 0 0 1 4 -0 2 -3 -2 -1 0 -0 -0 1 2 1 3 3 2 0 -1 -2 -4 -5 -5 -6 -8 -9 -10 -12 -13 -14 -15 -15 -16 -16 -17 -17 -17 -18
1 -1 -5 -7 -7 -1 2 2 2 2 0 0 1 1 2 1 1 1 1 1 1 -0 -2 -2 -3 -5 -6 -7 -7 -9 -11 -11 -13 -14 -15 -16 -16 -16 -17 -17 -18 -18 -19 -19
1 1 -2 -0 -1 2 1 2 2 1 0 1 1 1 1 1 1 1 0 -0 -1 -1 -3 -5 -5 -7 -8 -9 -10 -12 -12 -13 -15 -16 -16 -16 -17 -17 -18 -18 -19 -19 -19 -19
1 2 1 0 2 2 2 1 2 1 1 1 1 1 0 0 0 -0 -0 -1 -3 -5 -5 -6 -7 -9 -10 -11 -12 -13 -14 -15 -16 -16 -17 -17 -18 -18 -19 -19 -19 -19 -20 -20
1 1 -1 -0 3 2 2 2 3 1 1 1 -0 -0 -0 -0 -0 -1 -2 -5 -5 -6 -8 -8 -9 -11 -12 -13 -14 -14 -15 -16 -17 -17 -18 -18 -18 -19 -19 -19 -19 -19 -19 -18
3 3 2 2 4 3 4 3 2 1 1 0 -0 -0 -1 -2 -2 -4 -6 -5 -7 -9 -10 -10 -12 -13 -13 -14 -15 -14 -16 -17 -18 -18 -19 -19 -19 -19 -20 -20 -20 -19 -18 -16

GFSCGP_925_temp_021.txt.gz
Temp
15 15 15 15 15 17 18 16 17 17 18 19 17 16 16 16 13 9 7 7 6 6 6 6 5 6 6 7 8 8 10 10 12 13 13 12 11 11 11 12 12 12 12 12
14 14 16 16 15 16 16 17 15 16 16 16 16 16 16 15 13 11 8 7 6 5 5 5 5 5 5 6 6 8 8 9 10 10 9 9 9 8 8 9 9 10 10 10
14 17 16 16 15 15 15 14 15 16 17 16 16 14 16 11 9 8 7 6 6 5 4 4 4 4 5 5 5 6 7 8 8 9 9 9 9 8 8 7 7 7 8 8
14 15 17 15 16 15 15 15 15 16 16 15 15 14 15 13 9 8 6 5 5 4 4 4 3 3 4 5 6 6 7 8 8 8 8 7 4 3 3 4 5 5 6 6
16 16 15 15 15 16 16 16 15 16 14 14 15 13 13 12 11 8 6 5 4 4 3 3 3 3 4 5 5 6 7 7 7 7 7 6 5 4 5 5 5 5 5 5
14 15 16 16 15 15 15 16 13 11 12 12 13 14 14 13 14 8 6 5 4 3 3 3 4 4 4 4 5 6 6 5 6 6 6 5 4 4 4 4 4 3 4 4
15 15 16 16 17 15 15 14 13 12 11 13 12 12 14 13 10 9 7 5 4 4 3 2 3 3 4 4 4 4 4 3 4 4 4 4 4 4 3 3 2 3 3 3
14 15 14 14 15 15 13 14 13 13 11 12 12 12 14 8 6 7 7 5 4 3 3 2 3 3 3 3 4 4 4 3 4 4 3 3 3 3 3 2 2 2 2 2
13 14 15 14 15 16 14 13 14 12 4 8 13 13 10 7 6 5 5 4 4 3 3 3 4 4 4 4 4 4 4 4 4 4 3 3 3 3 2 2 2 2 1 1
15 14 15 14 15 14 14 13 12 10 11 9 12 12 13 8 7 6 5 5 4 4 3 3 4 4 4 4 4 4 4 3 3 3 3 2 2 2 1 1 1 1 1 1
13 14 13 14 13 13 13 13 13 12 10 11 9 13 11 10 8 7 6 5 4 4 3 2 3 4 4 4 4 4 3 3 2 2 2 2 1 1 1 1 1 1 1 1
13 11 9 12 12 11 13 12 12 13 12 8 10 13 9 11 8 7 6 6 4 4 3 3 3 3 3 3 3 3 3 2 2 2 2 2 1 1 1 0 -0 -0 0 0
12 10 7 12 13 11 11 11 11 10 8 9 11 12 8 8 8 7 7 5 5 4 4 2 2 2 3 3 3 3 3 3 2 2 2 1 1 0 -0 -0 -1 -1 -1 -2
13 11 12 13 12 11 11 10 9 10 8 12 12 11 8 9 8 8 7 6 5 4 3 1 0 2 3 3 3 3 3 3 2 2 1 1 1 0 -0 -1 -1 -1 -1 -2
12 10 9 10 10 10 10 10 8 9 9 9 10 9 9 8 7 6 6 6 4 4 2 2 1 1 2 3 3 3 3 3 2 2 1 0 0 -0 -0 -0 -0 -1 -2 -3
8 7 7 7 8 9 9 8 8 9 8 7 8 8 10 7 6 5 5 4 4 3 2 1 1 1 2 3 3 3 3 3 2 1 -0 -0 -0 -0 -0 -1 -2 -2 -3 -4
7 5 6 10 6 6 6 5 7 8 8 8 8 9 1 5 5 4 3 4 4 3 2 1 1 2 3 3 4 4 3 2 0 -1 -1 -0 -0 -1 -2 -3 -3 -4 -5 -7
6 5 4 4 1 6 9 5 6 7 6 4 3 0 1 4 5 4 2 2 3 3 3 2 2 3 4 4 4 3 2 0 -1 -1 -1 -1 -2 -3 -4 -4 -5 -7 -8 -9
6 5 3 5 1 4 7 6 5 5 5 2 4 1 3 3 2 2 2 2 2 1 2 3 5 5 5 4 3 1 -0 -1 -1 -2 -2 -3 -4 -5 -5 -6 -8 -9 -11 -12
4 5 6 -2 2 3 6 5 4 5 3 -1 -1 -0 -1 1 -0 1 2 2 1 3 4 4 4 3 2 2 1 -0 -2 -3 -3 -4 -4 -5 -6 -7 -8 -9 -11 -12 -13 -13
-1 1 5 3 3 -0 0 1 4 2 5 -3 -2 -0 -2 -1 1 2 1 0 3 4 4 4 3 2 2 -1 -2 -3 -3 -3 -4 -4 -6 -7 -8 -10 -11 -11 -12 -13 -14 -15
1 -0 -0 -2 -3 0 1 1 3 2 -0 -0 -0 2 0 1 1 1 0 -0 1 1 2 2 1 0 -1 -3 -4 -4 -5 -5 -6 -7 -8 -9 -10 -11 -11 -13 -13 -14 -15 -17
3 3 1 2 2 2 1 3 3 1 1 1 2 2 1 1 0 1 -0 -1 -0 1 2 2 -0 -2 -4 -5 -5 -6 -6 -7 -9 -10 -10 -11 -12 -12 -13 -14 -14 -16 -16 -18
0 0 1 1 1 1 2 2 2 1 2 2 1 1 0 1 -0 -0 -1 -1 -1 0 0 0 -3 -5 -6 -7 -7 -8 -9 -10 -11 -12 -13 -13 -14 -14 -14 -15 -16 -17 -18 -19
1 1 -1 -1 2 2 2 1 2 1 0 1 0 0 -0 -1 -0 -2 -1 -3 -2 -1 -1 -2 -5 -6 -7 -8 -9 -10 -11 -12 -13 -14 -14 -14 -15 -15 -16 -16 -16 -17 -17 -18
1 3 1 1 3 4 4 2 2 2 1 0 -1 -1 -2 -2 -1 -2 -2 -1 -1 -2 -3 -6 -7 -7 -8 -9 -11 -11 -12 -13 -14 -15 -15 -16 -17 -17 -18 -18 -18 -16 -17 -16

GFSCGP_925_temp_024.txt.gz
Temp
15 15 14 14 15 17 16 16 17 17 17 18 17 16 16 16 10 7 6 6 5 5 5 5 5 6 7 8 9 10 11 11 12 12 11 11 8 9 10 10 10 10 10 10
14 14 16 16 15 16 16 16 15 15 15 16 15 15 15 15 12 9 6 5 5 5 4 4 4 5 5 5 6 7 9 10 11 11 9 8 8 7 8 8 9 9 9 9
14 17 14 16 14 14 14 14 15 16 16 15 15 14 14 10 8 7 6 5 5 4 3 3 3 4 5 6 6 7 8 9 9 9 9 9 9 8 7 6 6 6 7 7
14 15 16 14 15 14 14 13 15 15 15 14 15 13 14 12 8 7 5 4 4 3 3 3 3 3 4 5 6 7 8 9 9 10 10 10 6 3 3 4 5 5 6 6
15 14 14 15 15 14 15 14 13 14 13 14 14 12 13 11 11 7 5 4 4 3 3 2 3 3 3 5 5 5 6 7 7 8 8 7 5 4 4 5 5 5 5 5
14 14 14 15 14 15 13 14 12 10 11 11 13 14 13 12 13 8 5 4 3 3 2 2 3 3 3 4 5 5 5 5 6 6 6 6 5 4 4 4 4 3 3 4
14 14 15 15 15 15 14 14 13 12 11 13 12 12 14 13 10 10 7 4 3 3 2 1 2 3 3 4 4 4 4 4 5 5 5 4 4 4 3 3 3 3 3 2
13 14 13 13 15 14 13 14 12 13 11 12 11 12 14 8 6 5 6 4 3 2 2 2 3 3 3 3 3 3 3 3 3 4 3 3 3 3 2 2 2 2 2 1
13 15 14 14 14 15 13 13 13 12 2 8 12 13 10 8 6 4 4 4 3 2 2 2 3 3 3 3 3 3 3 3 3 3 3 3 3 3 2 2 2 2 2 2
14 15 14 13 14 13 14 12 13 10 11 10 12 12 13 10 8 5 4 4 3 3 2 2 3 3 4 4 3 3 3 3 3 3 3 3 3 2 2 2 2 2 1 1
13 15 13 13 13 12 12 12 12 12 10 12 9 13 10 11 7 5 5 5 3 3 3 2 3 4 4 3 3 3 3 3 3 3 3 2 2 2 1 1 0 0 -0 -0
13 11 9 12 11 11 12 12 12 13 11 8 10 14 8 9 7 6 6 5 4 3 3 2 3 3 3 3 3 3 3 3 3 2 2 1 1 0 0 0 -0 -0 -1 -1
12 11 8 10 12 11 11 10 11 10 9 9 12 13 8 8 7 6 6 5 4 4 3 2 2 2 2 3 3 3 3 3 2 2 1 1 0 0 -0 -1 -1 -1 -1 -2
13 10 11 13 12 11 11 10 9 12 12 14 13 13 10 9 9 7 6 6 4 4 3 2 1 2 2 3 3 3 3 3 2 2 1 0 -0 -0 -0 -1 -1 -1 -1 -2
13 10 10 11 12 10 11 11 8 9 11 13 14 11 9 9 8 7 6 6 5 4 3 1 1 1 1 2 2 3 3 3 2 1 1 0 -0 -1 -1 -1 -0 -1 -1 -1
9 10 8 7 9 9 9 9 8 10 10 9 8 8 9 8 7 6 5 5 4 4 3 2 1 1 1 2 3 3 3 3 2 1 1 -0 -1 -1 -1 -0 -0 -1 -2 -2
8 6 6 10 5 7 8 8 8 9 8 10 9 10 3 6 5 4 4 3 4 3 3 2 1 1 2 3 4 3 4 3 2 1 -0 -1 -1 -1 -1 -1 -1 -2 -3 -4
7 6 6 5 4 8 9 5 6 8 8 6 4 2 2 4 4 4 2 2 3 2 2 1 2 2 3 4 3 3 3 2 1 -0 -1 -1 -2 -2 -2 -2 -3 -4 -5 -6
6 6 4 7 5 6 8 5 5 7 7 3 5 4 4 2 2 3 2 1 1 1 2 3 4 4 4 4 3 2 2 1 0 -1 -1 -2 -3 -3 -3 -3 -4 -5 -6 -7
5 5 8 2 5 7 7 5 4 6 5 0 2 2 -0 1 1 2 3 1 1 2 3 3 4 4 4 5 4 2 1 -0 -1 -2 -3 -3 -4 -4 -4 -5 -6 -7 -8 -10
3 3 6 5 6 4 2 2 4 5 7 -3 -1 -1 -1 0 2 3 2 0 2 3 3 4 4 4 4 3 2 0 -1 -2 -2 -4 -4 -5 -5 -5 -5 -6 -8 -9 -10 -11
3 3 1 1 4 6 1 2 5 4 0 0 1 1 1 2 2 1 1 1 0 1 3 3 3 3 3 2 0 -1 -3 -3 -4 -5 -5 -5 -6 -6 -7 -8 -10 -11 -12 -13
4 4 3 4 4 2 2 4 3 2 1 1 1 1 1 1 1 0 -0 -1 -0 1 2 3 2 2 1 0 -1 -2 -3 -5 -5 -6 -7 -7 -7 -8 -10 -11 -11 -12 -13 -14
1 1 1 2 2 2 2 2 2 1 2 2 1 1 -0 1 1 0 -1 -2 -2 1 1 3 0 -1 -0 -1 -3 -4 -5 -6 -7 -7 -8 -9 -9 -10 -11 -12 -13 -14 -14 -16
2 1 -1 -0 2 2 2 1 2 1 1 1 1 1 1 -0 -0 -1 -2 -3 -2 -0 0 -0 -0 -1 -1 -2 -5 -6 -7 -7 -8 -9 -10 -10 -11 -12 -13 -13 -14 -14 -15 -16
1 2 2 1 3 4 4 4 3 1 1 -0 -1 -1 -2 -2 -2 -2 -3 -1 -1 -1 -1 -2 -1 -3 -3 -5 -6 -8 -8 -8 -9 -11 -12 -12 -13 -14 -14 -15 -15 -14 -16 -16

GFSCGP_925_temp_027.txt.gz
Temp
14 15 15 15 15 17 15 16 17 16 17 18 16 16 17 14 11 8 7 6 6 5 4 4 5 6 7 7 8 9 10 10 12 12 11 10 8 9 9 9 9 10 10 10
14 14 15 15 15 16 15 16 15 15 15 16 15 15 15 14 12 9 8 6 6 5 4 3 4 5 5 6 7 8 9 10 11 11 10 9 8 7 8 8 8 8 9 9
14 17 13 15 14 14 14 14 14 16 15 15 14 14 14 11 8 7 7 6 5 5 4 3 3 4 5 6 6 7 7 8 9 9 9 9 8 7 6 6 6 6 7 7
14 15 15 14 15 14 14 13 14 15 15 15 14 14 14 12 9 7 5 5 4 4 3 3 3 3 4 4 6 7 8 8 8 8 9 9 6 3 2 4 4 5 5 5
15 13 14 14 14 14 15 12 13 14 13 13 14 13 13 12 13 8 5 4 4 3 3 3 2 3 3 5 6 7 7 8 8 9 9 8 5 4 4 4 5 4 4 5
14 14 13 14 13 14 11 12 12 10 11 11 13 14 14 14 13 9 6 5 4 3 2 2 3 3 3 4 5 6 7 6 7 7 7 6 5 4 4 4 4 3 3 3
14 14 14 14 13 14 14 13 13 13 11 13 11 12 14 13 11 10 7 5 4 3 2 2 2 2 3 4 4 5 5 5 5 5 5 5 5 5 4 3 3 3 3 3
12 14 13 13 14 13 12 13 13 13 12 13 10 12 14 10 7 5 6 5 3 3 2 2 2 3 3 3 3 4 4 3 4 4 4 4 4 3 3 2 2 2 2 1
12 14 13 13 13 14 13 13 13 11 2 9 12 13 13 8 8 5 4 4 3 3 2 2 2 3 3 3 3 3 3 3 3 3 3 3 3 3 2 2 2 2 1 1
14 15 13 13 13 13 14 12 13 10 12 9 12 13 15 10 10 6 4 4 4 3 2 2 2 3 3 3 3 2 3 3 2 2 3 3 3 2 2 2 2 2 2 2
13 15 12 12 12 12 12 12 11 12 11 11 10 13 10 12 10 7 5 5 4 4 3 3 2 4 4 3 3 2 2 2 2 2 2 2 2 2 2 2 2 2 1 1
13 12 10 12 11 11 12 12 12 12 11 8 10 14 9 10 8 7 6 5 4 4 4 3 3 3 3 3 3 3 2 2 2 2 2 2 2 2 2 1 1 0 0 -0
12 11 10 11 12 10 10 10 10 10 9 9 11 11 8 7 7 6 6 4 5 4 3 2 2 2 2 3 3 3 3 3 2 2 2 2 1 1 0 -0 -0 -1 -1 -1
14 11 12 16 13 11 10 9 9 12 9 11 13 14 9 9 9 7 6 5 4 4 4 2 1 1 2 3 3 3 3 3 3 2 2 1 1 0 -0 -1 -1 -2 -2 -2
13 12 9 11 12 11 11 10 9 10 12 13 14 12 10 10 8 7 6 5 4 4 3 2 2 1 2 2 3 3 3 3 2 2 1 1 0 -0 -1 -2 -2 -2 -2 -2
9 11 9 8 9 10 10 9 9 11 11 10 11 11 10 9 7 6 6 5 5 4 4 3 2 2 2 2 2 3 3 3 2 2 2 1 -0 -1 -1 -2 -2 -3 -3 -3
9 8 9 12 5 8 9 9 9 10 8 11 9 12 6 7 7 6 5 4 4 4 3 3 2 3 3 3 3 2 3 3 2 2 1 0 -1 -1 -2 -3 -3 -4 -3 -2
8 8 9 5 5 10 9 5 8 10 9 6 6 3 5 6 5 5 3 3 3 3 3 2 3 4 4 4 3 3 3 2 2 1 1 -0 -1 -2 -3 -4 -4 -3 -3 -4
6 7 6 7 8 8 7 5 6 7 8 4 7 6 4 3 3 4 2 1 3 2 3 4 5 5 5 4 4 3 2 2 1 1 1 -0 -2 -3 -4 -4 -4 -4 -5 -5
4 6 9 5 7 9 8 5 5 7 8 2 6 5 -0 1 1 3 2 1 1 3 4 4 4 4 4 4 4 3 3 2 1 1 0 -1 -3 -4 -4 -5 -5 -5 -7 -6
4 4 8 6 7 7 2 1 5 7 8 -1 0 -1 -0 2 4 3 2 0 2 3 3 4 3 3 5 4 3 3 2 2 2 -1 -2 -4 -5 -5 -5 -6 -6 -7 -7 -7
5 6 5 5 6 7 2 3 6 6 0 -0 1 1 1 2 2 2 1 2 1 1 2 3 2 3 4 3 3 3 2 3 -0 -2 -3 -5 -5 -6 -6 -7 -8 -8 -8 -9
6 6 5 6 6 3 4 5 4 3 2 1 2 1 1 2 2 2 1 -1 0 1 2 3 2 3 3 3 2 2 2 -0 -2 -4 -5 -6 -6 -7 -8 -9 -9 -9 -9 -10
2 2 4 4 2 3 3 3 3 2 4 2 2 1 1 2 1 1 -1 -1 -1 1 1 3 1 1 1 2 1 1 -1 -2 -4 -5 -6 -7 -7 -8 -9 -10 -10 -11 -11 -12
3 2 0 1 2 3 3 2 3 2 2 2 1 1 0 -0 -0 -1 -2 -4 -2 0 2 1 1 0 2 2 0 -2 -3 -4 -5 -7 -8 -8 -9 -10 -10 -11 -11 -12 -12 -13
1 1 3 3 4 5 5 4 2 2 2 -0 -1 -1 -2 -1 -1 -2 -3 -1 -0 -0 1 -1 -1 -1 0 -1 -2 -3 -5 -6 -7 -8 -9 -9 -10 -10 -11 -12 -12 -13 -14 -15

GFSCGP_925_temp_030.txt.gz
Temp
18 21 21 23 23 22 22 22 23 22 20 20 22 22 24 21 19 18 17 14 13 11 8 7 6 6 7 7 8 9 9 9 9 9 9 8 7 7 7 8 8 9 9 10
19 20 23 19 19 20 19 21 22 21 18 19 21 21 22 21 20 19 18 14 12 10 10 8 7 7 6 6 6 7 8 9 8 8 7 6 5 5 5 6 7 8 9 9
21 21 18 19 17 18 19 20 21 21 18 18 18 21 21 19 14 13 14 14 12 11 10 9 7 6 6 5 6 7 8 9 8 8 7 6 5 5 5 4 5 6 7 7
19 18 17 17 19 19 20 19 19 18 19 20 18 22 21 20 16 12 11 12 11 10 9 8 7 7 6 5 5 6 7 8 8 7 7 7 7 5 3 3 2 4 5 6
20 16 16 18 19 18 20 16 18 17 18 17 18 19 21 16 18 15 12 11 11 10 10 8 7 5 4 4 4 5 6 7 7 8 7 6 5 3 3 2 2 3 4 5
18 15 17 18 14 17 14 16 16 16 17 17 19 19 22 21 20 16 13 11 10 9 8 7 6 5 4 4 4 4 5 5 6 7 6 5 4 3 3 3 2 1 2 3
16 16 16 15 15 14 16 18 18 17 16 18 15 16 21 21 16 16 13 11 10 9 8 7 6 5 5 4 4 4 4 4 4 4 4 4 3 3 3 3 2 1 0 0
17 18 16 16 18 17 16 19 19 17 17 19 12 16 20 13 11 10 11 11 9 8 8 8 7 6 5 4 4 3 3 3 3 4 4 4 3 2 2 1 1 1 1 2
17 17 14 14 15 18 16 16 17 14 8 15 19 17 18 11 11 10 10 10 9 8 8 7 6 6 5 4 3 3 3 3 2 3 3 3 3 3 2 1 1 2 2 2
18 18 14 13 15 14 16 17 16 16 16 16 18 18 21 14 14 11 9 9 9 8 8 8 7 6 5 4 3 3 3 2 2 2 2 2 2 2 2 2 2 2 2 1
17 17 14 14 15 17 14 16 15 17 17 17 19 20 18 19 16 13 12 10 10 9 9 8 7 6 5 4 3 3 2 2 1 1 1 2 2 1 2 2 2 2 2 2
16 15 14 15 13 12 17 17 17 18 15 15 14 19 13 14 15 14 14 11 10 10 9 9 7 6 5 4 3 3 2 2 1 1 1 1 1 2 1 1 2 2 2 1
15 14 15 14 13 11 13 14 16 18 13 15 16 18 11 11 12 12 13 11 10 9 9 9 8 7 6 5 3 3 2 2 1 0 1 0 1 1 1 2 1 1 0 -0
17 15 17 18 19 17 14 14 14 16 16 17 16 18 14 13 13 13 11 11 10 9 8 8 8 7 6 5 4 3 3 2 1 1 0 0 0 1 1 1 0 -0 -1 -2
16 15 16 18 16 15 15 15 13 15 17 17 19 16 16 15 13 15 14 11 10 9 8 8 8 7 6 5 4 4 3 1 1 0 -0 0 1 1 0 -0 -1 -1 -2 -3
12 14 15 13 14 14 14 14 14 15 16 17 17 16 17 15 14 12 11 10 9 9 9 8 8 6 5 5 4 3 2 1 1 0 0 0 0 0 -0 -1 -2 -2 -3 -4
11 12 10 13 11 10 11 12 13 14 15 16 14 16 11 12 11 12 12 10 10 10 9 8 7 6 5 5 4 3 2 1 1 2 2 1 1 0 -1 -2 -2 -3 -4 -4
11 10 11 12 8 11 13 9 14 14 14 13 11 8 10 12 11 11 10 10 9 8 8 7 6 5 4 4 4 3 2 1 1 2 1 1 0 -0 -2 -2 -3 -4 -4 -5
7 9 8 9 10 12 7 8 10 11 13 10 12 10 8 6 8 9 7 7 9 7 7 6 6 5 4 4 4 3 2 1 1 2 2 1 0 -1 -2 -3 -4 -4 -5 -5
5 8 10 7 11 12 12 8 8 11 12 6 9 7 5 7 10 13 6 6 5 5 5 4 4 5 5 4 4 3 3 2 2 2 2 1 0 -1 -2 -4 -5 -5 -5 -6
7 6 10 8 10 9 8 6 7 10 12 5 7 5 5 8 10 8 6 5 5 5 4 4 4 4 5 5 4 4 3 3 4 3 2 1 -1 -2 -3 -5 -5 -6 -6 -7
8 8 8 8 9 10 5 5 10 9 4 5 5 5 5 6 5 5 5 5 3 3 2 3 3 3 4 4 4 3 2 4 3 2 1 -1 -2 -4 -5 -6 -6 -7 -8 -9
7 8 8 8 9 4 6 6 6 5 5 4 6 5 5 5 5 5 4 3 3 2 3 3 3 3 3 3 3 2 4 3 2 0 -1 -2 -4 -6 -6 -7 -7 -9 -9 -11
4 4 7 7 5 5 5 3 4 4 6 5 5 4 4 5 5 4 4 3 2 2 2 3 2 1 2 3 2 2 2 1 -0 -1 -3 -5 -6 -7 -8 -8 -9 -9 -10 -12
5 5 3 4 4 4 5 3 4 4 4 3 3 4 5 5 4 4 2 0 1 2 2 2 1 1 2 2 2 1 0 -1 -2 -4 -5 -6 -7 -8 -9 -9 -10 -11 -10 -11
4 4 6 6 6 7 7 6 4 4 4 3 3 1 0 1 2 0 0 1 1 0 1 0 1 1 2 1 1 0 -1 -2 -3 -6 -8 -9 -10 -10 -11 -12 -12 -11 -13 -14

GFSCGP_925_temp_033.txt.gz
Temp
22 22 22 24 25 26 25 24 25 26 23 22 24 25 26 24 22 23 24 21 18 16 13 11 10 10 10 10 8 8 8 9 9 9 9 9 8 7 6 6 7 8 8 8
20 21 24 25 24 24 23 23 24 25 22 21 23 24 25 25 23 23 24 22 19 15 13 11 11 10 10 10 8 8 8 9 9 10 9 8 8 7 6 5 6 6 7 7
23 24 21 21 21 21 22 22 24 24 21 20 22 22 23 24 25 24 21 22 19 16 14 12 11 10 9 9 9 9 8 9 9 8 8 7 6 6 6 5 5 5 6 7
22 23 20 20 22 22 22 24 22 22 21 21 21 22 25 25 21 19 18 18 17 16 14 13 11 10 9 8 7 8 8 8 8 8 8 9 8 7 5 4 4 4 6 6
22 19 19 20 22 22 22 20 21 21 20 20 21 19 23 25 24 21 18 16 16 15 13 12 11 9 8 7 7 7 7 7 7 8 9 8 6 5 5 4 4 3 4 5
21 17 19 21 17 20 19 19 18 18 19 18 20 21 23 24 21 22 18 16 15 13 13 11 9 8 7 6 6 6 6 6 6 7 7 6 6 5 5 4 4 3 3 3
20 19 18 18 18 16 18 19 19 18 17 18 18 20 23 24 19 21 17 15 14 13 12 11 9 8 7 6 6 6 6 6 6 6 6 6 6 5 5 4 4 3 2 2
20 20 19 18 20 19 17 20 20 18 20 21 14 18 22 21 17 15 18 15 14 12 11 11 9 9 7 6 5 6 6 5 5 5 5 5 5 5 4 4 3 2 1 1
21 21 18 18 19 20 18 18 20 17 11 16 20 20 21 15 14 14 15 14 12 11 11 11 10 8 7 6 5 6 5 5 5 4 4 4 4 3 3 2 2 1 1 1
22 20 17 16 16 17 18 19 16 17 16 18 22 22 22 15 16 14 13 13 12 11 11 11 9 8 7 6 6 6 5 5 4 4 3 3 3 2 2 1 1 1 2 1
20 19 16 15 16 18 16 17 18 19 19 19 20 22 24 23 20 16 14 13 13 12 11 11 9 8 7 6 5 5 5 4 3 3 3 2 2 1 1 1 1 1 2 1
19 19 19 18 17 18 19 19 19 18 16 17 19 21 17 22 22 17 16 14 13 12 12 11 10 9 7 6 5 5 5 4 3 3 2 2 1 1 1 1 1 1 1 1
17 16 15 17 15 13 15 17 18 18 16 16 17 20 16 16 18 17 17 14 13 12 11 11 10 9 8 7 5 5 4 4 2 2 2 1 1 1 1 1 0 0 1 1
17 16 16 18 20 19 16 16 16 17 16 18 18 20 16 16 16 16 16 14 13 12 11 11 11 10 8 7 6 5 5 4 2 2 1 1 1 1 1 0 -0 0 1 1
16 14 17 17 18 19 18 17 16 16 17 18 20 20 21 17 17 17 16 15 13 12 11 11 10 10 9 8 7 6 5 4 3 2 1 1 1 1 0 -0 -0 0 0 -0
13 14 15 14 16 17 17 17 17 16 17 18 19 20 22 19 18 17 16 14 13 12 11 10 10 9 9 9 7 6 5 4 3 2 1 1 1 0 -0 -0 -0 -0 -1 -1
12 11 11 13 14 14 11 14 16 17 17 18 17 19 15 17 16 16 15 13 12 12 11 10 9 8 8 8 6 6 5 5 3 2 1 1 1 0 -0 -0 -1 -1 -2 -2
11 10 11 13 11 13 15 18 16 16 18 17 17 10 13 14 14 13 14 13 12 11 10 10 9 8 7 7 6 6 5 4 2 1 1 1 1 0 -0 -1 -1 -2 -3 -3
11 11 11 12 13 16 17 10 14 15 16 17 16 12 10 9 10 11 12 12 12 11 10 9 8 9 7 5 4 4 3 2 1 0 0 1 1 0 -1 -1 -1 -2 -4 -4
6 11 11 9 13 14 16 12 11 14 13 10 11 9 8 9 11 15 9 8 9 9 7 7 6 6 5 4 4 4 2 1 1 1 1 1 1 0 -1 -1 -2 -3 -4 -5
8 10 11 11 12 11 9 8 11 12 13 6 9 8 7 10 12 9 8 7 7 6 5 5 5 5 5 4 4 3 2 2 5 3 2 2 1 0 -0 -2 -3 -4 -5 -6
10 10 10 10 11 12 7 8 12 10 6 6 8 7 8 8 7 7 7 6 5 3 3 4 4 4 5 5 4 3 3 5 4 3 3 2 1 -0 -2 -3 -4 -5 -6 -7
9 10 11 10 10 5 6 5 5 6 6 7 7 7 7 6 6 6 5 4 4 4 3 4 4 4 4 4 4 4 5 5 4 2 2 1 -0 -2 -3 -4 -5 -7 -8 -9
4 3 7 7 3 3 2 2 4 5 7 7 6 6 6 7 6 5 5 4 3 3 3 4 3 2 3 4 4 5 4 3 2 1 0 -1 -2 -4 -5 -6 -7 -8 -9 -10
6 3 4 2 3 4 2 3 4 5 5 5 5 5 6 5 5 5 3 1 2 3 3 3 2 2 3 4 3 4 3 1 0 -1 -2 -4 -5 -6 -7 -8 -7 -8 -8 -9
5 6 6 5 6 5 5 7 5 4 5 4 4 2 2 4 4 2 1 2 2 2 2 1 2 1 3 2 2 2 1 -0 -1 -3 -5 -6 -8 -9 -9 -10 -10 -10 -11 -11

GFSCGP_925_temp_036.txt.gz
Temp
20 19 19 20 21 23 23 22 22 23 21 22 20 21 22 20 19 19 18 17 15 14 13 12 11 10 10 10 10 9 10 9 10 9 9 9 8 8 9 9 9 9 9 9
18 18 21 23 23 22 22 21 20 22 20 21 20 20 21 22 19 20 20 18 15 12 11 11 11 10 10 10 9 9 9 9 9 10 9 8 7 7 7 7 7 8 8 8
20 22 22 22 22 21 21 20 21 21 20 20 18 18 20 21 22 20 20 20 16 12 11 10 10 10 10 9 9 9 9 9 10 9 9 8 7 6 6 6 6 6 7 7
20 21 21 21 20 20 20 22 21 21 19 17 19 16 20 21 21 21 18 16 14 12 11 10 10 10 9 9 9 9 9 9 9 9 8 8 7 6 5 5 5 6 7 7
20 19 18 19 20 21 20 19 20 20 18 18 18 16 19 21 21 20 15 14 13 12 11 9 10 10 8 8 8 8 8 8 9 9 9 8 7 5 5 5 5 5 6 6
19 18 19 19 16 19 17 18 19 18 17 14 17 17 18 21 21 20 16 14 13 11 10 10 10 8 7 7 7 7 7 8 8 9 9 8 6 5 5 4 4 4 5 5
17 17 18 17 16 17 18 17 16 14 13 14 17 16 19 20 20 20 17 14 13 11 9 8 7 7 6 6 6 6 7 7 7 8 8 7 6 6 5 4 4 4 4 5
17 17 17 16 18 16 15 17 15 16 15 15 14 15 17 16 14 15 15 14 12 10 9 8 7 7 6 6 6 6 6 6 7 7 6 6 6 5 5 5 4 4 4 4
20 19 18 17 18 18 16 16 18 15 9 11 15 16 19 14 13 14 13 12 11 10 9 8 8 7 6 6 6 6 6 6 6 6 6 5 5 5 5 4 4 4 4 3
21 19 17 14 17 17 17 17 14 14 12 13 16 18 18 14 14 12 12 12 11 10 9 8 8 7 6 6 6 6 6 6 5 5 5 5 5 5 4 4 4 3 3 2
19 18 14 14 14 16 14 15 16 16 14 14 14 17 21 18 16 13 13 12 11 10 10 9 8 7 6 6 6 6 6 5 5 4 4 4 4 4 4 4 3 3 2 2
17 17 12 14 15 16 17 16 16 14 15 15 13 19 19 19 16 14 13 12 11 10 9 9 8 7 6 6 6 5 5 5 4 4 4 4 3 3 3 3 3 2 2 1
16 14 14 15 13 14 14 15 17 18 14 16 14 17 14 14 16 14 12 11 11 10 9 9 8 7 6 5 5 5 5 5 4 4 4 3 3 3 2 2 2 1 1 1
17 14 16 17 18 16 13 14 16 16 15 15 17 18 15 15 14 14 12 12 11 10 10 9 8 7 7 6 5 5 5 4 4 3 3 2 2 2 2 2 1 1 1 1
16 13 15 17 18 17 14 14 15 15 16 16 17 17 19 15 13 14 13 11 11 10 9 9 8 7 7 6 5 4 4 4 4 3 3 2 2 2 1 1 1 1 0 0
13 13 14 14 16 14 15 16 14 15 15 16 17 17 19 17 15 13 13 12 11 10 10 9 8 7 7 6 5 5 5 4 4 3 3 2 2 2 1 1 1 0 -0 -0
10 11 11 13 14 13 13 13 15 15 15 16 15 17 16 17 14 14 13 12 11 10 10 9 8 8 8 7 6 5 5 5 4 3 2 2 2 1 1 1 0 -0 -1 -0
11 11 10 13 12 13 15 15 15 15 16 16 16 15 12 15 14 14 13 12 11 9 8 8 8 8 8 8 7 6 5 5 4 3 2 2 1 1 1 0 -0 -1 -1 -1
12 11 11 12 13 15 15 10 12 13 14 16 16 16 11 10 11 11 10 11 10 8 8 8 8 8 8 8 7 6 5 5 4 3 2 2 2 1 1 -0 -1 -1 -1 -2
10 12 11 10 13 14 13 9 12 13 14 11 13 14 7 9 13 11 8 8 8 8 8 8 8 8 7 7 6 6 5 4 3 3 3 2 1 1 1 0 -0 -1 -1 -2
9 10 12 12 13 12 6 5 10 13 12 4 7 8 8 11 11 9 6 6 6 6 6 7 7 5 6 5 5 4 4 3 4 3 3 2 1 1 1 0 -0 -1 -2 -3
10 11 12 11 12 13 6 8 11 8 4 4 7 7 7 6 5 5 4 4 3 2 3 5 4 4 4 4 4 3 3 6 4 3 3 2 1 1 0 -1 -1 -3 -3 -4
9 8 10 9 9 4 3 5 5 5 4 7 7 7 5 5 6 4 3 2 2 2 2 4 4 4 4 4 5 4 6 4 3 3 2 2 1 0 -0 -1 -3 -4 -5 -6
4 3 6 6 3 3 3 4 4 4 5 5 6 5 5 5 4 3 2 2 1 1 2 4 4 3 3 4 4 6 6 4 3 3 2 1 0 -1 -3 -3 -4 -5 -6 -7
4 4 4 2 2 2 3 2 3 4 5 5 5 5 5 3 3 3 1 0 1 2 3 4 4 4 4 4 4 4 3 3 2 1 1 -1 -2 -3 -4 -5 -6 -7 -7 -7
3 4 5 5 3 4 4 4 3 3 4 4 4 3 3 4 3 1 -0 1 2 2 2 3 4 4 4 3 3 2 1 1 1 -0 -2 -2 -3 -5 -6 -7 -8 -9 -10 -9

GFSCGP_925_temp_042.txt.gz
Temp
18 16 16 16 16 18 19 18 20 20 20 19 17 17 18 16 15 14 13 12 11 11 11 12 11 11 10 10 10 10 11 11 12 11 10 10 10 10 11 11 11 10 10 11
16 15 17 17 17 18 18 18 16 17 19 17 18 16 16 16 16 16 16 14 13 10 8 9 10 10 9 10 10 10 11 11 11 12 11 10 9 9 9 9 9 10 10 10
15 19 17 17 17 17 17 16 17 18 18 18 17 15 17 18 16 16 15 17 15 12 10 8 8 9 9 9 9 10 10 10 10 10 10 9 8 8 7 8 8 9 10 10
15 17 18 16 17 17 17 17 18 19 18 16 17 16 16 17 17 16 17 15 15 12 10 9 8 7 9 9 10 10 10 9 9 10 10 11 9 6 6 7 8 8 9 9
17 16 16 17 17 17 18 18 18 18 16 16 16 14 15 17 16 18 20 16 14 11 10 8 8 8 8 9 9 9 9 9 9 10 10 10 9 8 7 7 7 7 8 8
17 16 17 17 16 17 16 16 14 13 13 13 16 15 15 17 19 18 17 15 13 10 10 9 9 8 8 9 9 9 9 9 9 9 9 10 9 7 6 5 6 6 6 7
16 16 17 16 17 16 16 16 14 13 12 15 14 13 19 17 17 17 18 16 10 9 9 7 6 6 7 8 8 8 9 8 9 9 9 9 9 9 8 6 6 5 5 6
16 16 15 15 17 16 15 15 13 14 13 13 13 13 16 15 17 14 13 13 9 7 8 7 7 7 6 6 8 8 8 8 8 8 8 8 8 8 7 7 6 6 6 6
14 15 15 15 16 18 14 15 16 14 4 9 14 14 15 14 14 13 12 11 8 7 6 6 6 6 6 6 7 8 8 8 8 8 8 7 7 7 7 6 6 6 6 6
17 16 13 15 16 15 15 15 14 11 12 11 14 13 17 16 15 15 13 10 8 7 6 5 5 5 5 6 6 7 8 8 8 8 7 7 7 7 7 6 6 5 5 5
17 16 14 14 13 14 14 14 15 14 11 12 12 16 14 18 16 16 14 12 9 8 7 5 5 4 5 5 6 7 7 7 7 7 7 7 6 6 6 6 5 5 5 5
15 16 12 12 13 13 14 15 14 13 13 11 12 19 16 16 16 14 14 12 9 9 7 6 5 4 4 4 5 5 6 6 6 6 6 6 6 6 6 5 5 5 5 4
15 14 12 13 12 13 13 13 16 14 11 15 14 18 13 14 15 14 13 11 9 8 6 5 4 4 4 3 4 4 5 5 6 6 6 5 5 5 5 5 4 4 4 4
17 14 15 16 17 13 12 12 13 16 15 16 16 19 17 17 16 16 12 10 8 7 7 6 5 4 4 4 3 4 4 4 5 5 5 5 5 5 5 5 4 4 3 3
16 14 15 17 16 14 14 15 14 14 16 16 19 18 19 17 15 14 14 10 8 7 7 6 6 5 5 4 4 4 4 4 4 4 4 4 4 4 4 4 3 3 3 3
13 14 15 14 15 13 14 12 14 15 16 16 17 17 18 16 16 14 12 11 9 8 8 8 7 6 5 5 4 3 3 3 4 3 3 4 4 4 3 3 3 2 2 2
12 14 13 13 14 12 12 14 14 14 15 15 15 17 14 16 16 15 13 11 11 10 9 8 7 6 6 5 5 4 3 2 3 3 3 3 3 3 2 3 2 2 1 1
10 12 12 13 12 13 15 15 17 16 16 15 15 16 15 15 16 15 13 10 11 11 10 9 8 8 7 6 5 4 3 2 2 2 2 2 3 3 2 2 1 1 1 1
12 12 12 12 13 14 15 11 13 13 15 16 16 16 17 16 12 15 10 12 14 11 11 10 9 8 7 5 4 3 2 2 2 1 1 2 3 2 1 1 1 1 1 0
11 12 11 10 13 13 17 12 12 12 14 15 14 15 15 11 13 16 16 10 9 9 9 7 8 8 5 4 4 3 2 1 1 1 1 3 3 2 1 1 1 1 1 0
11 11 12 12 13 11 9 6 12 13 15 3 7 11 11 12 15 8 7 7 5 5 5 7 7 5 4 4 4 2 1 1 3 1 2 3 3 1 2 2 2 1 -0 -0
11 12 12 11 12 12 7 9 13 9 3 3 7 6 8 8 6 4 4 3 3 2 3 4 4 3 4 4 4 2 2 3 2 3 2 2 2 2 2 2 1 0 -0 -1
11 11 12 11 11 4 3 4 4 4 2 4 6 5 5 6 5 4 2 2 2 1 2 4 4 2 3 5 5 2 2 3 2 2 2 2 2 2 2 2 1 -1 -1 -2
5 4 8 8 5 3 3 4 4 3 3 3 3 5 5 5 4 3 2 1 1 -0 1 2 3 1 -0 1 3 4 3 3 3 3 2 2 2 1 1 0 0 -1 -2 -3
4 5 4 4 3 2 2 3 4 2 2 2 3 3 4 5 4 3 1 -1 -1 -0 1 2 2 1 1 2 2 3 4 4 3 3 2 1 1 0 -0 -1 -1 -1 -1 -2
3 5 5 6 5 6 6 4 3 3 3 4 5 4 3 4 3 1 -1 -1 -1 -1 0 1 1 2 1 2 2 2 3 3 3 2 1 0 0 -1 -1 -2 -3 -4 -5 -5

GFSCGP_925_temp_048.txt.gz
Temp
15 16 16 15 15 18 16 17 18 17 18 18 16 15 16 16 13 13 12 11 12 12 14 14 15 14 13 13 12 12 12 10 10 10 11 11 12 12 12 13 13 13 13 13
15 15 16 16 16 17 17 18 16 16 16 17 15 15 16 16 14 14 16 14 14 13 10 11 13 13 12 12 12 11 11 9 9 10 11 11 12 11 12 12 12 12 12 12
15 18 15 16 15 16 15 15 16 17 16 15 15 14 15 16 15 14 13 16 15 15 14 10 9 11 11 11 11 11 11 10 9 10 10 11 11 9 9 10 10 11 11 11
15 16 16 15 16 16 15 14 16 16 16 14 15 14 14 17 17 15 17 14 15 15 13 12 9 9 9 11 12 11 11 10 9 9 10 11 11 8 9 10 11 11 10 10
16 14 15 15 16 15 16 15 14 16 14 14 14 14 16 15 16 17 19 16 14 14 12 12 9 10 10 9 10 10 10 9 9 9 10 10 10 10 11 9 10 10 9 9
15 15 15 16 15 16 13 15 13 11 12 13 14 14 16 15 17 17 18 17 15 13 11 9 11 10 9 9 8 9 9 9 9 8 9 10 10 9 9 7 8 8 8 8
15 15 15 15 15 15 16 16 15 13 11 14 12 13 19 18 18 15 17 17 15 13 11 8 6 6 7 7 7 8 8 8 8 8 8 9 9 10 10 9 8 8 7 7
15 15 14 14 16 15 14 15 13 14 12 13 11 13 15 15 14 14 13 13 12 11 9 7 6 7 6 6 6 6 7 7 8 8 8 8 9 9 8 9 9 9 9 9
13 14 14 14 15 17 14 14 16 16 3 10 15 14 15 14 14 13 13 12 12 10 9 7 5 6 6 6 6 6 6 7 7 7 8 8 8 8 8 8 8 8 9 9
16 15 13 14 15 14 15 14 14 11 13 10 14 13 16 18 17 15 14 14 13 11 9 6 4 5 6 6 6 6 7 7 7 7 7 7 7 7 7 8 8 8 8 8
15 15 13 13 13 13 14 14 13 13 12 12 11 17 12 17 17 16 16 15 14 12 9 7 4 5 6 6 6 6 6 6 6 7 7 7 6 6 7 7 7 7 7 7
14 14 11 12 12 12 13 14 13 12 12 10 10 18 15 14 15 14 14 14 14 11 9 6 4 4 4 5 5 5 5 6 6 7 7 6 6 6 7 6 6 6 7 6
14 13 10 13 12 11 12 12 14 12 10 14 11 18 13 14 14 14 13 13 12 11 8 5 3 2 3 4 4 4 5 6 6 6 6 6 6 5 5 6 5 6 6 5
15 13 13 15 15 12 11 11 13 16 13 16 15 18 18 17 17 15 14 12 11 10 8 5 3 2 3 3 4 4 4 5 5 5 5 5 5 5 5 5 5 5 4 4
14 13 12 15 14 13 12 12 12 15 16 14 17 17 19 18 17 17 15 13 12 10 8 6 5 4 3 3 3 4 4 4 4 4 4 4 5 5 4 4 4 4 4 4
12 11 12 12 13 12 12 11 13 13 15 15 16 16 19 19 15 13 13 14 14 11 9 9 7 4 4 4 4 4 4 4 4 3 3 3 4 3 3 3 3 2 3 3
11 11 11 13 13 12 12 11 13 14 15 15 14 16 18 17 17 17 16 13 13 12 13 10 8 7 6 5 5 4 4 3 3 3 2 3 3 2 1 2 1 1 2 2
10 10 11 12 11 12 14 14 14 14 14 14 15 16 16 17 16 15 13 12 13 11 11 10 9 8 8 8 6 5 4 3 2 1 1 1 1 1 1 0 0 0 1 1
12 12 12 12 13 14 13 12 12 11 13 15 14 15 16 16 12 15 12 11 13 12 10 9 11 11 10 9 7 5 3 2 1 0 0 0 1 -0 -0 -1 -1 -1 -1 -1
12 13 11 11 12 13 16 16 12 12 13 15 14 15 15 12 13 15 10 8 8 6 6 6 8 8 8 7 5 4 1 1 -0 -0 -0 -0 -0 -0 -0 -1 -1 -1 -1 -0
11 11 12 12 12 11 10 8 11 13 14 4 7 11 10 12 14 6 5 7 3 3 3 4 4 4 4 4 4 2 1 -0 0 0 0 -0 0 -0 -1 -1 -2 -2 -1 -0
11 11 12 12 12 12 8 11 13 10 4 3 7 7 7 7 6 5 4 4 2 2 2 2 2 1 2 3 3 1 -0 0 1 0 -0 -1 -1 -1 -1 -0 -1 -3 -3 -3
10 9 10 10 11 9 7 8 6 4 4 4 5 5 5 6 5 4 3 2 1 1 1 1 1 0 1 2 3 0 -0 0 0 -0 -1 -1 -1 -1 -2 -4 -4 -3 -2 -3
8 5 9 10 8 6 6 4 4 3 4 4 4 4 4 6 5 3 2 1 -0 -2 -1 -0 -0 -1 -1 1 2 2 0 1 0 -0 -1 -2 -2 -3 -3 -3 -2 -1 -3 -4
7 6 8 7 6 3 4 2 3 3 3 3 4 5 5 4 4 3 0 -1 -1 -1 -0 1 -1 -2 -2 -0 -0 0 0 1 -0 -1 -2 -2 -2 -2 -3 -3 -2 -3 -2 -2
4 6 8 10 6 8 8 4 3 3 3 4 4 3 2 3 2 -1 -1 -2 -2 -2 -2 -2 -3 -3 -4 -3 -3 -2 -1 -0 0 -1 -1 -2 -2 -3 -3 -3 -5 -5 -4 -4